Weather History for Tyler, TX

Change the Weather History Date:

Thursday, July 12, 2012

  Actual Average Record
Temperature  
Mean Temperature 81 °F 83 °F  
Max Temperature 87 °F 92 °F 105 °F (1954)
Min Temperature 74 °F 73 °F 59 °F (1898)
Degree Days  
Heating Degree Days 0 0  
Month to date heating degree days 0 0  
Since 1 June heating degree days 0 0  
Since 1 July heating degree days 0 0  
Cooling Degree Days 16 18  
Month to date cooling degree days 221 207  
Year to date cooling degree days 1394 1009  
Since 1 June cooling degree days 735 640  
Growing Degree Days 28 (Base 50)    
Moisture  
Dew Point 72 °F    
Average Humidity 80    
Maximum Humidity 94    
Minimum Humidity 65    
Precipitation  
Precipitation 0.33 in 0.10 in 1.22 in (1988)
Month to date precipitation 1.78 1.43  
Year to date precipitation 21.13 25.19  
Snow  
Snow 0.00 in - - ()
Month to date snowfall 0.0  
Since 1 June snowfall 0.0  
Since 1 July snowfall 0.0  
Snow Depth 0.00 in    
Sea Level Pressure  
Sea Level Pressure 29.94 in    
Wind  
Wind Speed 5 mph (ENE)    
Max Wind Speed 21 mph    
Max Gust Speed 25 mph    
Visibility 7 miles    
Events Rain , Thunderstorm    
T = Trace of Precipitation, MM = Missing Value Source: NWS Daily Summary

Daily Weather History Graph

Daily Weather History Graph

Search for Another Location

Airport:

Trip Planner

Search our weather history database for the weather conditions in past years. The results will help you decide how hot, cold, wet, or windy it might be!

Date:

Astronomy

Jul. 12, 2012 Rise Set
Actual Time 6:23 AM CDT 8:30 PM CDT
Civil Twilight 5:56 AM CDT 8:58 PM CDT
Nautical Twilight 5:22 AM CDT 9:32 PM CDT
Astronomical Twilight 4:45 AM CDT 10:08 PM CDT
Moon 1:21 AM CDT (7/12) 3:09 PM CDT (7/12)
Length of Visible Light 15h 02m
Length of Day
14h 06m
Waning Crescent, 35% of the Moon is Illuminated
Jul 12
Waning Crescent
Jul 18
New
Jul 26
First Quarter
Aug 1
Full
Aug 9
Last Quarter

Hourly Weather History & Observations

Time (CDT) Temp. Heat Index Dew Point Humidity Pressure Visibility Wind Dir Wind Speed Gust Speed Precip Events Conditions
12:02 AM 75.2 °F - 73.4 °F 94% 29.94 in 8.0 mi Calm Calm - N/A   Mostly Cloudy
12:53 AM 75.0 °F - 73.0 °F 94% 29.92 in 7.0 mi Calm Calm - N/A   Overcast
1:53 AM 75.0 °F - 72.0 °F 90% 29.92 in 10.0 mi SSE 3.5 mph - N/A   Overcast
2:45 AM 75.2 °F - 71.6 °F 89% 29.94 in 10.0 mi Calm Calm - N/A   Overcast
2:53 AM 75.0 °F - 72.0 °F 90% 29.92 in 10.0 mi Calm Calm - N/A   Overcast
3:09 AM 75.2 °F - 71.6 °F 89% 29.94 in 9.0 mi Calm Calm - N/A   Scattered Clouds
3:53 AM 73.9 °F - 72.0 °F 93% 29.92 in 7.0 mi Calm Calm - N/A   Partly Cloudy
4:07 AM 75.2 °F - 71.6 °F 89% 29.94 in 7.0 mi Calm Calm - N/A   Scattered Clouds
4:15 AM 75.2 °F - 71.6 °F 89% 29.94 in 5.0 mi Calm Calm - N/A   Mostly Cloudy
4:43 AM 73.4 °F - 71.6 °F 94% 29.94 in 6.0 mi Calm Calm - N/A   Scattered Clouds
4:53 AM 73.9 °F - 72.0 °F 93% 29.92 in 6.0 mi Calm Calm - N/A   Mostly Cloudy
5:04 AM 73.4 °F - 71.6 °F 94% 29.94 in 6.0 mi Calm Calm - N/A   Mostly Cloudy
5:12 AM 73.4 °F - 71.6 °F 94% 29.94 in 6.0 mi Calm Calm - N/A   Overcast
5:53 AM 73.9 °F - 72.0 °F 93% 29.91 in 5.0 mi Calm Calm - N/A   Overcast
6:27 AM 73.4 °F - 71.6 °F 94% 29.94 in 5.0 mi NW 4.6 mph - N/A   Overcast
6:53 AM 73.9 °F - 72.0 °F 93% 29.92 in 4.0 mi Calm Calm - N/A   Overcast
7:12 AM 73.4 °F - 71.6 °F 94% 29.95 in 4.0 mi Calm Calm - N/A   Overcast
7:40 AM 75.2 °F - 71.6 °F 89% 29.95 in 5.0 mi North 4.6 mph - N/A   Overcast
7:53 AM 75.0 °F - 73.0 °F 94% 29.93 in 5.0 mi NNE 4.6 mph - N/A   Overcast
8:53 AM 77.0 °F - 72.0 °F 84% 29.94 in 8.0 mi Variable 3.5 mph - N/A   Overcast
9:09 AM 77.0 °F - 71.6 °F 83% 29.96 in 9.0 mi ENE 6.9 mph - N/A   Overcast
9:42 AM 78.8 °F - 71.6 °F 78% 29.97 in 8.0 mi NNE 8.1 mph - N/A   Overcast
9:53 AM 78.1 °F - 72.0 °F 81% 29.96 in 7.0 mi ENE 8.1 mph - N/A   Overcast
10:53 AM 81.0 °F 85.2 °F 72.0 °F 74% 29.95 in 7.0 mi NNE 6.9 mph - N/A   Overcast
11:11 AM 82.4 °F 87.2 °F 71.6 °F 70% 29.97 in 8.0 mi East 3.5 mph - N/A   Overcast
11:48 AM 82.4 °F 87.2 °F 71.6 °F 70% 29.98 in 10.0 mi ENE 5.8 mph - N/A   Mostly Cloudy
11:53 AM 82.9 °F 87.5 °F 71.1 °F 67% 29.96 in 10.0 mi ENE 6.9 mph - N/A   Mostly Cloudy
12:53 PM 84.0 °F 89.0 °F 71.1 °F 65% 29.95 in 10.0 mi NE 5.8 mph - N/A   Overcast
1:45 PM 84.2 °F 89.6 °F 71.6 °F 66% 29.96 in 8.0 mi ENE 10.4 mph 17.3 mph 0.00 in   Mostly Cloudy
1:53 PM 80.1 °F 84.5 °F 73.9 °F 81% 29.94 in 3.0 mi East 10.4 mph - 0.02 in Rain Heavy Rain
2:10 PM 80.6 °F 86.2 °F 75.2 °F 84% 29.96 in 10.0 mi East 6.9 mph - 0.01 in   Scattered Clouds
2:53 PM 82.0 °F 87.9 °F 73.9 °F 76% 29.93 in 9.0 mi East 8.1 mph - 0.01 in Rain Light Rain
3:53 PM 84.9 °F 91.4 °F 73.0 °F 67% 29.91 in 10.0 mi ENE 5.8 mph - 0.00 in   Clear
4:53 PM 84.9 °F 91.4 °F 73.0 °F 67% 29.91 in 10.0 mi SE 9.2 mph - N/A   Mostly Cloudy
5:08 PM 84.2 °F 90.9 °F 73.4 °F 70% 29.92 in 10.0 mi SSE 4.6 mph - N/A   Mostly Cloudy
5:28 PM 84.2 °F 89.6 °F 71.6 °F 66% 29.93 in 10.0 mi ESE 6.9 mph - N/A Thunderstorm Thunderstorm
5:39 PM 80.6 °F 85.4 °F 73.4 °F 79% 29.93 in 2.5 mi North 20.7 mph 25.3 mph 0.08 in Rain , Thunderstorm Light Thunderstorms and Rain
5:46 PM 75.2 °F - 69.8 °F 83% 29.93 in 1.0 mi North 4.6 mph 25.3 mph 0.19 in Rain , Thunderstorm Heavy Thunderstorms and Rain
5:51 PM 75.2 °F - 69.8 °F 83% 29.93 in 0.8 mi Variable 4.6 mph - 0.26 in Rain , Thunderstorm Heavy Thunderstorms and Rain
5:53 PM 73.9 °F - 70.0 °F 87% 29.91 in 0.8 mi NW 6.9 mph - 0.27 in Rain , Thunderstorm Heavy Thunderstorms and Rain
6:01 PM 73.4 °F - 71.6 °F 94% 29.93 in 2.0 mi East 4.6 mph - 0.02 in Rain , Thunderstorm Thunderstorms and Rain
6:09 PM 75.2 °F - 71.6 °F 89% 29.94 in 7.0 mi Calm Calm - 0.03 in Rain , Thunderstorm Light Thunderstorms and Rain
6:37 PM 75.2 °F - 71.6 °F 89% 29.93 in 9.0 mi Calm Calm - 0.03 in Rain Light Rain
6:53 PM 77.0 °F - 73.0 °F 88% 29.91 in 10.0 mi NNE 5.8 mph - 0.03 in   Partly Cloudy
7:53 PM 79.0 °F - 73.9 °F 84% 29.91 in 10.0 mi NE 4.6 mph - N/A   Clear
8:53 PM 78.1 °F - 73.9 °F 87% 29.92 in 8.0 mi Calm Calm - N/A   Clear
9:53 PM 77.0 °F - 73.9 °F 90% 29.93 in 10.0 mi East 5.8 mph - N/A   Clear
10:53 PM 75.9 °F - 73.0 °F 91% 29.94 in 9.0 mi SSE 3.5 mph - N/A   Clear
11:53 PM 75.0 °F - 72.0 °F 90% 29.95 in 10.0 mi SE 6.9 mph - N/A   Clear